Location: Freistadt
(48.5112°N, 14.5013°E)
Time: 09:33:36
(UTC+01:00)

P83-1 Hilat - Visible Passes

Search period start: 02 December 2023 00:00
Search period end: 12 December 2023 00:00
Orbit: 740 x 795 km, 82.0° (Epoch: 01 December)

Date Brightness Start Highest point End Pass type
(mag) Time Alt. Az. Time Alt. Az. Time Alt. Az.
02 Dec 10.4 17:21:40 10° WSW 17:25:42 21° WNW 17:29:45 10° NNW visible
03 Dec 9.7 16:43:50 10° SW 16:48:41 35° WNW 16:53:34 10° N visible
04 Dec 11.0 17:53:51 10° WNW 17:54:06 10° NW 17:54:21 10° NW visible
05 Dec 10.6 17:13:26 10° WSW 17:16:51 17° WNW 17:20:16 10° NNW visible
06 Dec 10.0 16:35:14 10° SW 16:39:46 27° WNW 16:44:17 10° N visible
08 Dec 10.6 17:05:30 10° W 17:08:01 13° WNW 17:10:32 10° NNW visible
11 Dec 10.8 16:58:31 10° WNW 16:59:12 10° NW 16:59:52 10° NW visible
